Overview Statistics Trail Chart Weather Telemetry Raw packets
 

This is the latest recevied weather packets stored in our database for station/object K7SKM. If no packets are shown the sender has not sent any weather packets the latest 10 day(s).

<< 17 18 19 20 21 22 23 >>
Time Temp. Humidity Pressure Rain* Wind** Luminosity Snow
1788558367 20.56° C 56% 1018 hPa 0 mm - 60 W/m² -
1788558063 20° C 55% 1017.9 hPa 0 mm - 68 W/m² -
1788557760 20.56° C 55% 1017.9 hPa 0 mm - 84 W/m² -
1788557457 20° C 55% 1018.1 hPa 0 mm - 89 W/m² -
1788557156 20.56° C 55% 1017.9 hPa 0 mm - 83 W/m² -
1788556852 20.56° C 55% 1018 hPa 0 mm - 327 W/m² -
1788556551 21.11° C 52% 1018.1 hPa 0 mm - 92 W/m² -
1788556247 20.56° C 54% 1017.9 hPa 0 mm - 207 W/m² -
1788555946 20.56° C 55% 1017.9 hPa 0 mm - 118 W/m² -
1788555642 20.56° C 56% 1017.9 hPa 0 mm - 150 W/m² -
1788555337 21.11° C 56% 1018.1 hPa 0 mm - 429 W/m² -
1788555034 20.56° C 58% 1018.1 hPa 0 mm - 418 W/m² -
1788554730 19.44° C 56% 1017.9 hPa 0 mm - 409 W/m² -
1788554425 20° C 59% 1018 hPa 0 mm - 119 W/m² -
1788554121 20.56° C 58% 1018.1 hPa 0 mm - 273 W/m² -
1788553817 20.56° C 61% 1018.1 hPa 0 mm - 427 W/m² -
1788553513 20.56° C 61% 1018.1 hPa 0 mm - 427 W/m² -
1788553209 20.56° C 55% 1018.2 hPa 0 mm - 382 W/m² -
1788552904 20.56° C 58% 1018.1 hPa 0 mm - 418 W/m² -
1788552599 19.44° C 61% 1018.2 hPa 0 mm - 425 W/m² -
1788552297 19.44° C 58% 1018.2 hPa 0 mm - 422 W/m² -
1788551992 21.11° C 55% 1018 hPa 0 mm - 426 W/m² -
1788551691 20.56° C 56% 1018.2 hPa 0 mm - 422 W/m² -
1788551390 20.56° C 54% 1018.1 hPa 0 mm - 420 W/m² -
1788551085 19.44° C 58% 1018 hPa 0 mm - 419 W/m² -

* Rain latest hour (hover to see other rain measurements)
** Current wind speed in m/s (hover to see current wind gust speed)